Weather in Shlanly

Russia / Republic of Bashkortostan     53°52′20″N   55°40′00″E
temp.,
°C
wind,
m/s
gust,
m/s
humid.,
%
clouds,
%
prec.,
mm/h
press.,
hPa
HPBL,
m
27 february, sat
sat2723:00−19sse5149566 0.0 1020412
02:00−18sse7169197 0.0 1017453
05:00−16sse8169099 0.1 1013595
08:00−14sse101894100 2.4 1009683
11:00−12sse101694100 4.0 1007739
14:00−9sse91494100 1.1 1005757
17:00−6sse71294100 2.3 1003667
20:00−6sse5119699 0.7 1002418
28 february, sun
sun2823:00−6sse599699 1.8 1001317
02:00−5sse3797100 1.5 999262
05:00−4sse3797100 2.8 999213
08:00−4sse3597100 1.3 999178
11:00−2sse3497100 1.8 999231
14:000ssw23100100 0.4 1000240
17:00−4nw699598 0.8 1001267
20:00−9nw599491 0.2 1004252
1 march, mon
mon123:00−12nw379691 0.3 1007165
02:00−12wnw3695100 0.4 1009168
05:00−13nw359699 0.6 1011151
08:00−14nw359697 0.2 1013116
11:00−14nw359493 0.3 1015252
14:00−13nw359295 0.1 1016331
17:00−14nw459397 0.1 1017291
20:00−19nw339878 0.0 101927
2 march, tue
tue223:00−21nw2210082 0.0 102020
02:00−23wnw1210081 0.0 102020
05:00−23ssw229976 0.0 102020
08:00−24s339978 0.0 101932
11:00−20s579571 0.0 1018225
14:00−17s7119394 0.0 1015367
17:00−16s8139397 0.0 1013422
20:00−15s81495100 0.3 1011479
3 march, wed
wed323:00−15s81494100 1.0 1010478
02:00−13s81494100 0.7 1007456
05:00−11s61394100 1.4 1004458
08:00−10sse51394100 0.3 1002355
11:00−4s61095100 0.5 1001456
14:00−2ssw4695100 0.4 1000488
17:00−2wsw3595100 1.1 1000436
20:00−5wsw3596100 0.2 1000124